TimeCDT,TemperatureF,Dew PointF,Humidity,Sea Level PressureIn,VisibilityMPH,Wind Direction,Wind SpeedMPH,Gust SpeedMPH,PrecipitationIn,Events,Conditions,WindDirDegrees,DateUTC
12:15 AM,73.4,64.4,73,29.80,10.0,SSE,3.5,-,N/A,,Clear,160,2013-06-27 05:15:00
12:35 AM,73.4,64.4,73,29.81,10.0,South,4.6,-,N/A,,Scattered Clouds,180,2013-06-27 05:35:00
12:55 AM,73.4,64.4,73,29.81,10.0,West,5.8,-,N/A,,Partly Cloudy,280,2013-06-27 05:55:00
1:15 AM,73.4,64.4,73,29.81,10.0,West,6.9,-,N/A,,Clear,270,2013-06-27 06:15:00
1:35 AM,73.4,64.4,73,29.81,3.0,West,5.8,-,N/A,,Clear,270,2013-06-27 06:35:00
1:55 AM,73.4,64.4,73,29.81,4.0,WNW,5.8,-,N/A,,Clear,290,2013-06-27 06:55:00
2:15 AM,71.6,64.4,78,29.81,4.0,NW,6.9,-,N/A,,Clear,310,2013-06-27 07:15:00
2:35 AM,71.6,64.4,78,29.82,7.0,NW,6.9,-,N/A,,Clear,320,2013-06-27 07:35:00
2:55 AM,71.6,64.4,78,29.82,7.0,NW,5.8,-,N/A,,Clear,310,2013-06-27 07:55:00
3:15 AM,71.6,64.4,78,29.82,7.0,WNW,5.8,-,N/A,,Clear,300,2013-06-27 08:15:00
3:35 AM,71.6,64.4,78,29.82,10.0,NW,6.9,-,N/A,,Clear,310,2013-06-27 08:35:00
3:55 AM,71.6,62.6,73,29.83,10.0,NW,4.6,-,N/A,,Clear,320,2013-06-27 08:55:00
4:15 AM,69.8,62.6,78,29.82,4.0,Calm,Calm,-,N/A,,Clear,0,2013-06-27 09:15:00
4:35 AM,69.8,62.6,78,29.82,5.0,West,6.9,-,N/A,,Clear,270,2013-06-27 09:35:00
4:55 AM,69.8,62.6,78,29.83,7.0,West,8.1,-,N/A,,Clear,280,2013-06-27 09:55:00
5:15 AM,69.8,62.6,78,29.83,10.0,WNW,6.9,-,N/A,,Clear,290,2013-06-27 10:15:00
5:35 AM,69.8,62.6,78,29.84,10.0,WNW,6.9,-,N/A,,Clear,290,2013-06-27 10:35:00
5:55 AM,69.8,62.6,78,29.85,10.0,NNW,8.1,-,N/A,,Clear,330,2013-06-27 10:55:00
6:35 AM,69.8,62.6,78,29.85,-9999.0,NW,5.8,-,N/A,,Unknown,320,2013-06-27 11:35:00
6:55 AM,71.6,62.6,73,29.86,9.0,WNW,3.5,-,N/A,,Clear,290,2013-06-27 11:55:00
7:15 AM,71.6,62.6,73,29.87,10.0,WNW,5.8,-,N/A,,Clear,290,2013-06-27 12:15:00
7:35 AM,73.4,62.6,69,29.87,10.0,NW,6.9,-,N/A,,Clear,320,2013-06-27 12:35:00
7:55 AM,73.4,62.6,69,29.87,10.0,NW,8.1,-,N/A,,Clear,320,2013-06-27 12:55:00
8:15 AM,75.2,62.6,65,29.88,10.0,WNW,9.2,-,N/A,,Clear,300,2013-06-27 13:15:00
8:35 AM,77.0,64.4,65,29.87,10.0,NW,6.9,-,N/A,,Clear,310,2013-06-27 13:35:00
8:55 AM,78.8,64.4,61,29.87,10.0,WNW,6.9,-,N/A,,Clear,300,2013-06-27 13:55:00
9:15 AM,78.8,64.4,61,29.88,10.0,WNW,6.9,-,N/A,,Clear,290,2013-06-27 14:15:00
9:35 AM,78.8,64.4,61,29.87,10.0,WNW,8.1,-,N/A,,Clear,300,2013-06-27 14:35:00
9:55 AM,80.6,66.2,61,29.86,10.0,West,6.9,-,N/A,,Clear,270,2013-06-27 14:55:00
10:15 AM,82.4,64.4,54,29.87,10.0,West,9.2,-,N/A,,Clear,280,2013-06-27 15:15:00
10:35 AM,82.4,66.2,58,29.86,10.0,West,11.5,-,N/A,,Clear,280,2013-06-27 15:35:00
10:55 AM,82.4,64.4,54,29.86,10.0,West,9.2,-,N/A,,Clear,270,2013-06-27 15:55:00
11:15 AM,82.4,64.4,54,29.86,10.0,West,10.4,-,N/A,,Clear,270,2013-06-27 16:15:00
11:35 AM,84.2,64.4,51,29.87,10.0,West,11.5,-,N/A,,Clear,280,2013-06-27 16:35:00
11:55 AM,84.2,62.6,48,29.86,10.0,West,10.4,-,N/A,,Partly Cloudy,270,2013-06-27 16:55:00
12:15 PM,84.2,64.4,51,29.86,10.0,West,11.5,-,N/A,,Partly Cloudy,270,2013-06-27 17:15:00
12:35 PM,84.2,64.4,51,29.86,10.0,West,12.7,-,N/A,,Partly Cloudy,280,2013-06-27 17:35:00
12:55 PM,84.2,62.6,48,29.86,10.0,West,11.5,-,N/A,,Clear,270,2013-06-27 17:55:00
1:15 PM,87.8,62.6,43,29.86,10.0,West,13.8,-,N/A,,Clear,260,2013-06-27 18:15:00
1:35 PM,87.8,64.4,46,29.85,10.0,West,20.7,27.6,N/A,,Clear,270,2013-06-27 18:35:00
1:55 PM,87.8,62.6,43,29.84,10.0,West,23.0,28.8,N/A,,Clear,270,2013-06-27 18:55:00
2:15 PM,87.8,62.6,43,29.83,10.0,WSW,20.7,26.5,N/A,,Clear,250,2013-06-27 19:15:00
2:35 PM,87.8,62.6,43,29.84,10.0,West,19.6,31.1,N/A,,Clear,270,2013-06-27 19:35:00
2:55 PM,89.6,60.8,38,29.84,10.0,WNW,24.2,31.1,N/A,,Clear,290,2013-06-27 19:55:00
3:15 PM,87.8,60.8,40,29.83,10.0,West,23.0,29.9,N/A,,Clear,280,2013-06-27 20:15:00
3:35 PM,86.0,59.0,40,29.83,10.0,West,23.0,29.9,N/A,,Clear,280,2013-06-27 20:35:00
3:55 PM,87.8,60.8,40,29.82,10.0,WNW,21.9,29.9,N/A,,Clear,290,2013-06-27 20:55:00
4:15 PM,87.8,59.0,38,29.81,10.0,WNW,19.6,28.8,N/A,,Clear,300,2013-06-27 21:15:00
4:35 PM,87.8,60.8,40,29.81,10.0,WNW,18.4,23.0,N/A,,Clear,290,2013-06-27 21:35:00
4:55 PM,86.0,60.8,43,29.81,10.0,WNW,20.7,26.5,N/A,,Clear,290,2013-06-27 21:55:00
5:15 PM,86.0,59.0,40,29.81,10.0,NW,18.4,28.8,N/A,,Clear,310,2013-06-27 22:15:00
5:35 PM,84.2,59.0,42,29.80,10.0,WNW,19.6,27.6,N/A,,Clear,300,2013-06-27 22:35:00
5:55 PM,84.2,59.0,42,29.80,10.0,WNW,21.9,28.8,N/A,,Clear,290,2013-06-27 22:55:00
6:15 PM,84.2,57.2,40,29.80,10.0,WNW,19.6,28.8,N/A,,Clear,300,2013-06-27 23:15:00
6:35 PM,84.2,53.6,35,29.80,10.0,NW,15.0,28.8,N/A,,Clear,310,2013-06-27 23:35:00
6:55 PM,82.4,53.6,37,29.79,10.0,WNW,15.0,-,N/A,,Clear,300,2013-06-27 23:55:00
7:15 PM,82.4,53.6,37,29.80,10.0,WNW,12.7,-,N/A,,Clear,300,2013-06-28 00:15:00
7:35 PM,80.6,53.6,39,29.80,10.0,WNW,13.8,-,N/A,,Clear,300,2013-06-28 00:35:00
7:55 PM,80.6,53.6,39,29.80,10.0,WNW,13.8,-,N/A,,Clear,300,2013-06-28 00:55:00
8:15 PM,78.8,53.6,42,29.80,10.0,WNW,10.4,-,N/A,,Clear,300,2013-06-28 01:15:00
8:35 PM,75.2,53.6,47,29.80,10.0,WNW,10.4,-,N/A,,Clear,300,2013-06-28 01:35:00
8:55 PM,73.4,55.4,53,29.80,10.0,WNW,9.2,-,N/A,,Clear,290,2013-06-28 01:55:00
9:15 PM,71.6,55.4,57,29.81,10.0,WNW,9.2,-,N/A,,Clear,290,2013-06-28 02:15:00
9:35 PM,71.6,55.4,57,29.81,10.0,WNW,6.9,-,N/A,,Clear,290,2013-06-28 02:35:00
9:55 PM,69.8,55.4,60,29.82,10.0,WNW,9.2,-,N/A,,Clear,290,2013-06-28 02:55:00
10:15 PM,69.8,55.4,60,29.82,10.0,NW,8.1,-,N/A,,Clear,310,2013-06-28 03:15:00
10:35 PM,68.0,53.6,60,29.82,10.0,WNW,8.1,-,N/A,,Clear,300,2013-06-28 03:35:00
10:55 PM,68.0,53.6,60,29.82,10.0,WNW,8.1,-,N/A,,Clear,290,2013-06-28 03:55:00
11:15 PM,68.0,53.6,60,29.82,10.0,NW,9.2,-,N/A,,Clear,310,2013-06-28 04:15:00
11:35 PM,69.8,53.6,56,29.83,10.0,NW,8.1,-,N/A,,Clear,320,2013-06-28 04:35:00
11:55 PM,69.8,53.6,56,29.83,10.0,NNW,8.1,-,N/A,,Clear,330,2013-06-28 04:55:00